SVA569 OMDB-OEJN

Flight info

Callsign SVA569
Flight time 2h 43m
Altitude 28000
Route KUTLI L519 ATUDO M318 GOLGU M550 RIBOT DCT MIGMA DCT ITRUX Y511 ASMIS T218 IMGUT M309 VEMEM
Aircraft A321/M-SDE3FGHIRWY/LB1

Departure

Time 2026-04-20 18:50
Airport Dubai International Airport (OMDB)

Arrival

Time 2026-04-20 21:34
Airport King Abdulaziz International Airport (OEJN)
Time Latitude Longitude Altitude Speed Heading
2026-04-20 18:00 25.24379 55.36931 24 ft 0 kts 31°
2026-04-20 18:35 25.24366 55.36923 23 ft 3 kts 31°
2026-04-20 18:35 25.24348 55.36910 21 ft 3 kts 31°
2026-04-20 18:36 25.24332 55.36900 25 ft 3 kts 34°
2026-04-20 18:36 25.24316 55.36885 21 ft 3 kts 59°
2026-04-20 18:36 25.24309 55.36865 22 ft 3 kts 91°
2026-04-20 18:36 25.24313 55.36843 22 ft 3 kts 114°
2026-04-20 18:37 25.24323 55.36823 24 ft 3 kts 122°
2026-04-20 18:37 25.24332 55.36805 22 ft 0 kts 122°
2026-04-20 18:40 25.24328 55.36813 22 ft 4 kts 122°
2026-04-20 18:40 25.24309 55.36846 23 ft 5 kts 122°
2026-04-20 18:40 25.24289 55.36883 21 ft 6 kts 122°
2026-04-20 18:41 25.24263 55.36928 22 ft 7 kts 122°
2026-04-20 18:41 25.24234 55.36980 21 ft 9 kts 121°
2026-04-20 18:41 25.24199 55.37041 21 ft 10 kts 121°
2026-04-20 18:41 25.24160 55.37112 21 ft 11 kts 121°
2026-04-20 18:42 25.24119 55.37186 21 ft 11 kts 122°
2026-04-20 18:42 25.24078 55.37258 22 ft 11 kts 122°
2026-04-20 18:42 25.24037 55.37332 22 ft 11 kts 122°
2026-04-20 18:42 25.23995 55.37406 21 ft 12 kts 122°
2026-04-20 18:43 25.23969 55.37489 21 ft 12 kts 95°
2026-04-20 18:43 25.23991 55.37573 23 ft 12 kts 57°
2026-04-20 18:43 25.24053 55.37628 21 ft 12 kts 32°
2026-04-20 18:43 25.24122 55.37674 21 ft 12 kts 31°
2026-04-20 18:44 25.24190 55.37720 21 ft 11 kts 31°
2026-04-20 18:44 25.24254 55.37763 22 ft 11 kts 31°
2026-04-20 18:44 25.24312 55.37803 23 ft 7 kts 32°
2026-04-20 18:44 25.24347 55.37828 24 ft 5 kts 34°
2026-04-20 18:45 25.24355 55.37834 26 ft 0 kts 33°
2026-04-20 18:47 25.24356 55.37835 26 ft 1 kts 33°
2026-04-20 18:47 25.24375 55.37849 25 ft 5 kts 34°
2026-04-20 18:47 25.24411 55.37876 28 ft 7 kts 34°
2026-04-20 18:47 25.24457 55.37912 30 ft 8 kts 34°
2026-04-20 18:48 25.24503 55.37946 30 ft 8 kts 34°
2026-04-20 18:48 25.24564 55.37992 31 ft 13 kts 34°
2026-04-20 18:48 25.24640 55.38047 25 ft 12 kts 31°
2026-04-20 18:48 25.24702 55.38089 29 ft 8 kts 31°
2026-04-20 18:49 25.24743 55.38112 30 ft 6 kts 13°
2026-04-20 18:49 25.24772 55.38091 30 ft 5 kts 301°
2026-04-20 18:49 25.24795 55.38050 30 ft 8 kts 302°
2026-04-20 18:49 25.24888 55.37881 30 ft 56 kts 301°
2026-04-20 18:50 25.25205 55.37310 32 ft 116 kts 302°
2026-04-20 18:50 25.25713 55.36394 30 ft 162 kts 301°
2026-04-20 18:50 25.26357 55.35217 129 ft 189 kts 301°
2026-04-20 18:50 25.27032 55.33987 743 ft 186 kts 301°
2026-04-20 18:51 25.27708 55.32771 1337 ft 186 kts 302°
2026-04-20 18:51 25.28389 55.31549 1920 ft 187 kts 302°
2026-04-20 18:51 25.29022 55.30294 2407 ft 189 kts 290°
2026-04-20 18:51 25.29169 55.28870 2859 ft 194 kts 265°
2026-04-20 18:52 25.28718 55.27432 3091 ft 203 kts 247°
2026-04-20 18:52 25.28105 55.26006 3418 ft 208 kts 247°
2026-04-20 18:52 25.27490 55.24570 3791 ft 207 kts 247°
2026-04-20 18:52 25.26871 55.23128 4103 ft 209 kts 248°
2026-04-20 18:53 25.26250 55.21673 4406 ft 210 kts 248°
2026-04-20 18:53 25.25618 55.20192 4597 ft 219 kts 248°
2026-04-20 18:53 25.24950 55.18622 4715 ft 232 kts 248°
2026-04-20 18:53 25.24257 55.16989 4882 ft 244 kts 248°
2026-04-20 18:54 25.23467 55.15271 5133 ft 260 kts 244°
2026-04-20 18:54 25.22547 55.13462 5364 ft 277 kts 242°
2026-04-20 18:54 25.21565 55.11606 5822 ft 282 kts 242°
2026-04-20 18:54 25.20566 55.09732 6368 ft 284 kts 242°
2026-04-20 18:55 25.19716 55.07765 6891 ft 284 kts 250°
2026-04-20 18:55 25.18951 55.05750 7438 ft 285 kts 250°
2026-04-20 18:55 25.18192 55.03727 7988 ft 286 kts 250°
2026-04-20 18:55 25.17430 55.01693 8546 ft 287 kts 250°
2026-04-20 18:56 25.16665 54.99652 9085 ft 288 kts 251°
2026-04-20 18:56 25.15903 54.97632 9639 ft 290 kts 248°
2026-04-20 18:56 25.14805 54.95745 10125 ft 297 kts 230°
2026-04-20 18:56 25.13133 54.94309 10309 ft 317 kts 207°
2026-04-20 18:57 25.10996 54.93464 10426 ft 335 kts 200°
2026-04-20 18:57 25.08727 54.92670 10560 ft 350 kts 200°
2026-04-20 18:57 25.06358 54.91856 10670 ft 364 kts 199°
2026-04-20 18:57 25.03899 54.91014 10856 ft 375 kts 199°
2026-04-20 18:58 25.01424 54.90168 11231 ft 379 kts 199°
2026-04-20 18:58 24.98902 54.89301 11673 ft 381 kts 199°
2026-04-20 18:58 24.96366 54.88425 12139 ft 383 kts 199°
2026-04-20 18:58 24.93813 54.87538 12599 ft 385 kts 199°
2026-04-20 18:59 24.91248 54.86645 13049 ft 388 kts 199°
2026-04-20 18:59 24.88670 54.85747 13501 ft 390 kts 199°
2026-04-20 18:59 24.86073 54.84846 13933 ft 392 kts 199°
2026-04-20 18:59 24.83466 54.83941 14340 ft 393 kts 199°
2026-04-20 19:00 24.80855 54.83033 14746 ft 395 kts 199°
2026-04-20 19:00 24.78230 54.82121 15148 ft 396 kts 199°
2026-04-20 19:00 24.75596 54.81206 15547 ft 397 kts 199°
2026-04-20 19:00 24.72991 54.80303 15938 ft 399 kts 199°
2026-04-20 19:01 24.70342 54.79386 16320 ft 400 kts 199°
2026-04-20 19:01 24.67683 54.78464 16693 ft 401 kts 199°
2026-04-20 19:01 24.65018 54.77541 17055 ft 402 kts 199°
2026-04-20 19:01 24.62346 54.76615 17408 ft 403 kts 199°
2026-04-20 19:02 24.59664 54.75687 17745 ft 405 kts 200°
2026-04-20 19:02 24.56971 54.74760 18078 ft 406 kts 200°
2026-04-20 19:02 24.54288 54.73792 18362 ft 406 kts 204°
2026-04-20 19:02 24.51799 54.72445 18628 ft 404 kts 212°
2026-04-20 19:03 24.49371 54.70880 18907 ft 405 kts 212°
2026-04-20 19:03 24.46935 54.69312 19189 ft 407 kts 212°
2026-04-20 19:03 24.44489 54.67741 19468 ft 408 kts 212°
2026-04-20 19:03 24.42035 54.66169 19742 ft 409 kts 212°
2026-04-20 19:04 24.39572 54.64595 20036 ft 410 kts 212°
2026-04-20 19:04 24.37104 54.63018 20321 ft 411 kts 213°
2026-04-20 19:04 24.34628 54.61436 20619 ft 413 kts 213°
2026-04-20 19:04 24.32144 54.59848 20916 ft 414 kts 213°
2026-04-20 19:05 24.29684 54.58276 21202 ft 415 kts 213°
2026-04-20 19:05 24.27201 54.56652 21508 ft 416 kts 215°
2026-04-20 19:05 24.24952 54.54682 21787 ft 413 kts 227°
2026-04-20 19:05 24.23133 54.52258 22080 ft 412 kts 238°
2026-04-20 19:06 24.21699 54.49541 22382 ft 413 kts 243°
2026-04-20 19:06 24.20318 54.46782 22683 ft 414 kts 242°
2026-04-20 19:06 24.18905 54.44026 22994 ft 415 kts 242°
2026-04-20 19:06 24.17494 54.41310 23284 ft 416 kts 242°
2026-04-20 19:07 24.16054 54.38553 23554 ft 418 kts 242°
2026-04-20 19:07 24.14612 54.35791 23800 ft 419 kts 242°
2026-04-20 19:07 24.13173 54.33014 24025 ft 420 kts 242°
2026-04-20 19:07 24.11735 54.30223 24266 ft 421 kts 242°
2026-04-20 19:08 24.10294 54.27422 24506 ft 423 kts 242°
2026-04-20 19:08 24.07399 54.21800 24963 ft 426 kts 242°
2026-04-20 19:08 24.05940 54.18975 25202 ft 427 kts 242°
2026-04-20 19:09 24.04497 54.16178 25441 ft 428 kts 242°
2026-04-20 19:09 24.03032 54.13338 25678 ft 430 kts 242°
2026-04-20 19:09 24.01558 54.10486 25917 ft 431 kts 242°
2026-04-20 19:09 24.00079 54.07626 26156 ft 433 kts 242°
2026-04-20 19:10 23.98589 54.04759 26388 ft 434 kts 242°
2026-04-20 19:10 23.97082 54.01890 26618 ft 436 kts 241°
2026-04-20 19:10 23.95565 53.99021 26840 ft 437 kts 241°
2026-04-20 19:10 23.94036 53.96139 27049 ft 438 kts 241°
2026-04-20 19:11 23.92505 53.93254 27255 ft 440 kts 241°
2026-04-20 19:11 23.90986 53.90396 27440 ft 441 kts 241°
2026-04-20 19:11 23.89443 53.87496 27625 ft 442 kts 242°
2026-04-20 19:11 23.87896 53.84586 27803 ft 444 kts 242°
2026-04-20 19:12 23.86361 53.81691 27854 ft 435 kts 242°
2026-04-20 19:12 23.84857 53.78849 27859 ft 430 kts 242°
2026-04-20 19:12 23.83362 53.76031 27862 ft 428 kts 242°
2026-04-20 19:12 23.81868 53.73221 27859 ft 427 kts 242°
2026-04-20 19:13 23.80373 53.70413 27860 ft 427 kts 242°
2026-04-20 19:13 23.78903 53.67645 27864 ft 427 kts 242°
2026-04-20 19:13 23.77415 53.64842 27864 ft 427 kts 242°
2026-04-20 19:13 23.75926 53.62041 27862 ft 427 kts 242°
2026-04-20 19:14 23.74436 53.59244 27863 ft 427 kts 242°
2026-04-20 19:14 23.72945 53.56443 27856 ft 426 kts 242°
2026-04-20 19:14 23.71456 53.53647 27859 ft 426 kts 242°
2026-04-20 19:14 23.69962 53.50851 27863 ft 426 kts 242°
2026-04-20 19:15 23.68472 53.48057 27858 ft 426 kts 242°
2026-04-20 19:15 23.66989 53.45260 27857 ft 426 kts 242°
2026-04-20 19:15 23.65530 53.42498 27860 ft 426 kts 242°
2026-04-20 19:15 23.64053 53.39703 27856 ft 426 kts 242°
2026-04-20 19:16 23.62571 53.36902 27859 ft 426 kts 242°
2026-04-20 19:16 23.61092 53.34112 27858 ft 425 kts 242°
2026-04-20 19:16 23.59610 53.31318 27851 ft 425 kts 242°
2026-04-20 19:16 23.58125 53.28529 27853 ft 425 kts 242°
2026-04-20 19:17 23.56639 53.25742 27856 ft 425 kts 242°
2026-04-20 19:17 23.55154 53.22954 27853 ft 425 kts 242°
2026-04-20 19:17 23.53689 53.20205 27856 ft 425 kts 242°
2026-04-20 19:17 23.52203 53.17415 27854 ft 425 kts 242°
2026-04-20 19:18 23.50720 53.14632 27850 ft 425 kts 242°
2026-04-20 19:18 23.49237 53.11847 27846 ft 425 kts 242°
2026-04-20 19:18 23.47754 53.09061 27847 ft 425 kts 242°
2026-04-20 19:18 23.46270 53.06277 27845 ft 425 kts 242°
2026-04-20 19:19 23.44784 53.03494 27847 ft 425 kts 242°
2026-04-20 19:19 23.43312 53.00747 27842 ft 426 kts 242°
2026-04-20 19:19 23.41821 52.97963 27840 ft 426 kts 242°
2026-04-20 19:19 23.40329 52.95173 27847 ft 426 kts 242°
2026-04-20 19:20 23.38861 52.92375 27849 ft 426 kts 243°
2026-04-20 19:20 23.37415 52.89559 27843 ft 426 kts 243°
2026-04-20 19:20 23.35982 52.86742 27846 ft 426 kts 243°
2026-04-20 19:20 23.34549 52.83919 27843 ft 426 kts 243°
2026-04-20 19:21 23.33135 52.81140 27845 ft 426 kts 243°
2026-04-20 19:21 23.31696 52.78327 27841 ft 426 kts 243°
2026-04-20 19:21 23.30252 52.75518 27842 ft 425 kts 243°
2026-04-20 19:21 23.28807 52.72711 27844 ft 425 kts 243°
2026-04-20 19:22 23.27360 52.69903 27848 ft 425 kts 243°
2026-04-20 19:22 23.25913 52.67098 27842 ft 425 kts 243°
2026-04-20 19:22 23.24467 52.64292 27836 ft 425 kts 243°
2026-04-20 19:22 23.23023 52.61488 27837 ft 425 kts 243°
2026-04-20 19:23 23.21575 52.58685 27833 ft 425 kts 243°
2026-04-20 19:23 23.20146 52.55920 27835 ft 425 kts 243°
2026-04-20 19:23 23.18699 52.53116 27834 ft 425 kts 244°
2026-04-20 19:23 23.17525 52.50190 27831 ft 422 kts 253°
2026-04-20 19:24 23.16583 52.47171 27833 ft 422 kts 253°
2026-04-20 19:24 23.15634 52.44160 27842 ft 422 kts 253°
2026-04-20 19:24 23.14677 52.41146 27839 ft 422 kts 253°
2026-04-20 19:24 23.13719 52.38136 27840 ft 422 kts 253°
2026-04-20 19:25 23.12761 52.35123 27831 ft 422 kts 253°
2026-04-20 19:25 23.11820 52.32153 27834 ft 422 kts 253°
2026-04-20 19:25 23.10866 52.29145 27836 ft 421 kts 253°
2026-04-20 19:25 23.09909 52.26135 27837 ft 421 kts 253°
2026-04-20 19:26 23.08956 52.23131 27839 ft 421 kts 253°
2026-04-20 19:26 23.08000 52.20120 27834 ft 421 kts 253°
2026-04-20 19:26 23.07044 52.17118 27840 ft 421 kts 253°
2026-04-20 19:26 23.06086 52.14121 27838 ft 421 kts 253°
2026-04-20 19:27 23.05125 52.11117 27840 ft 421 kts 253°
2026-04-20 19:27 23.04179 52.08158 27841 ft 420 kts 253°
2026-04-20 19:27 23.03221 52.05163 27840 ft 420 kts 253°
2026-04-20 19:27 23.02264 52.02167 27839 ft 420 kts 253°
2026-04-20 19:28 23.01308 51.99170 27835 ft 420 kts 253°
2026-04-20 19:28 23.00349 51.96176 27839 ft 420 kts 253°
2026-04-20 19:28 22.99390 51.93184 27832 ft 420 kts 253°
2026-04-20 19:28 22.98429 51.90192 27836 ft 420 kts 253°
2026-04-20 19:29 22.97467 51.87196 27837 ft 420 kts 253°
2026-04-20 19:29 22.96508 51.84208 27833 ft 420 kts 253°
2026-04-20 19:29 22.95564 51.81261 27836 ft 420 kts 253°
2026-04-20 19:29 22.94602 51.78265 27835 ft 420 kts 253°
2026-04-20 19:30 22.93642 51.75275 27829 ft 420 kts 253°
2026-04-20 19:30 22.92682 51.72288 27834 ft 420 kts 253°
2026-04-20 19:30 22.91721 51.69299 27831 ft 420 kts 252°
2026-04-20 19:30 22.90755 51.66307 27831 ft 420 kts 252°
2026-04-20 19:31 22.89790 51.63323 27827 ft 420 kts 252°
2026-04-20 19:31 22.88821 51.60332 27828 ft 420 kts 252°
2026-04-20 19:31 22.87867 51.57388 27832 ft 420 kts 252°
2026-04-20 19:31 22.86896 51.54397 27831 ft 420 kts 252°
2026-04-20 19:32 22.85927 51.51408 27828 ft 420 kts 252°
2026-04-20 19:32 22.84980 51.48412 27826 ft 420 kts 256°
2026-04-20 19:32 22.84396 51.45327 27829 ft 418 kts 265°
2026-04-20 19:32 22.84278 51.42185 27828 ft 417 kts 270°
2026-04-20 19:33 22.84273 51.39038 27822 ft 417 kts 270°
2026-04-20 19:33 22.84261 51.35933 27828 ft 418 kts 270°
2026-04-20 19:33 22.84242 51.32783 27828 ft 418 kts 270°
2026-04-20 19:33 22.84217 51.29634 27825 ft 418 kts 270°
2026-04-20 19:34 22.84190 51.26484 27826 ft 418 kts 270°
2026-04-20 19:34 22.84161 51.23331 27828 ft 418 kts 270°
2026-04-20 19:34 22.84133 51.20182 27828 ft 418 kts 270°
2026-04-20 19:34 22.84107 51.17026 27832 ft 418 kts 270°
2026-04-20 19:35 22.84087 51.13873 27830 ft 418 kts 270°
2026-04-20 19:35 22.84069 51.10762 27833 ft 418 kts 270°
2026-04-20 19:35 22.84049 51.07610 27827 ft 419 kts 270°
2026-04-20 19:35 22.84027 51.04451 27832 ft 419 kts 270°
2026-04-20 19:36 22.84004 51.01299 27834 ft 419 kts 270°
2026-04-20 19:36 22.83978 50.98141 27834 ft 419 kts 270°
2026-04-20 19:36 22.83952 50.94990 27841 ft 419 kts 270°
2026-04-20 19:36 22.83920 50.91834 27841 ft 419 kts 270°
2026-04-20 19:37 22.83885 50.88674 27837 ft 419 kts 269°
2026-04-20 19:37 22.83850 50.85520 27845 ft 419 kts 270°
2026-04-20 19:37 22.83817 50.82368 27840 ft 419 kts 270°
2026-04-20 19:37 22.83788 50.79253 27840 ft 419 kts 270°
2026-04-20 19:38 22.83762 50.76098 27842 ft 419 kts 270°
2026-04-20 19:38 22.83734 50.72944 27843 ft 419 kts 270°
2026-04-20 19:38 22.83704 50.69792 27845 ft 418 kts 270°
2026-04-20 19:38 22.83672 50.66637 27843 ft 418 kts 270°
2026-04-20 19:39 22.83639 50.63484 27838 ft 418 kts 270°
2026-04-20 19:39 22.83604 50.60333 27843 ft 418 kts 270°
2026-04-20 19:39 22.83569 50.57223 27842 ft 418 kts 270°
2026-04-20 19:39 22.83534 50.54074 27844 ft 418 kts 270°
2026-04-20 19:40 22.83498 50.50921 27840 ft 418 kts 270°
2026-04-20 19:40 22.83458 50.47771 27839 ft 418 kts 269°
2026-04-20 19:40 22.83417 50.44618 27843 ft 418 kts 270°
2026-04-20 19:40 22.83382 50.41472 27836 ft 418 kts 270°
2026-04-20 19:41 22.83346 50.38321 27838 ft 418 kts 270°
2026-04-20 19:41 22.83307 50.35171 27835 ft 418 kts 269°
2026-04-20 19:41 22.83268 50.32061 27837 ft 418 kts 270°
2026-04-20 19:41 22.83228 50.28914 27830 ft 418 kts 270°
2026-04-20 19:42 22.83189 50.25766 27836 ft 418 kts 270°
2026-04-20 19:42 22.83149 50.22612 27829 ft 418 kts 269°
2026-04-20 19:42 22.83107 50.19464 27832 ft 418 kts 270°
2026-04-20 19:42 22.83066 50.16310 27828 ft 418 kts 270°
2026-04-20 19:43 22.83027 50.13163 27832 ft 418 kts 270°
2026-04-20 19:43 22.82984 50.10010 27823 ft 418 kts 269°
2026-04-20 19:43 22.82935 50.06855 27821 ft 418 kts 269°
2026-04-20 19:43 22.82887 50.03744 27826 ft 418 kts 269°
2026-04-20 19:44 22.82841 50.00593 27824 ft 419 kts 269°
2026-04-20 19:44 22.82796 49.97439 27821 ft 419 kts 269°
2026-04-20 19:44 22.82751 49.94281 27824 ft 419 kts 269°
2026-04-20 19:44 22.82704 49.91126 27820 ft 419 kts 269°
2026-04-20 19:45 22.82657 49.87976 27818 ft 419 kts 269°
2026-04-20 19:45 22.82607 49.84818 27818 ft 419 kts 269°
2026-04-20 19:45 22.82557 49.81664 27823 ft 419 kts 269°
2026-04-20 19:45 22.82505 49.78510 27820 ft 419 kts 269°
2026-04-20 19:46 22.82455 49.75392 27819 ft 419 kts 269°
2026-04-20 19:46 22.82405 49.72240 27814 ft 419 kts 269°
2026-04-20 19:46 22.82354 49.69084 27818 ft 419 kts 269°
2026-04-20 19:46 22.82304 49.65930 27817 ft 419 kts 269°
2026-04-20 19:47 22.82255 49.62775 27815 ft 419 kts 269°
2026-04-20 19:47 22.82204 49.59622 27815 ft 419 kts 269°
2026-04-20 19:47 22.82151 49.56469 27814 ft 419 kts 269°
2026-04-20 19:47 22.82097 49.53320 27816 ft 418 kts 269°
2026-04-20 19:48 22.82041 49.50165 27815 ft 418 kts 269°
2026-04-20 19:48 22.81983 49.47057 27815 ft 418 kts 269°
2026-04-20 19:48 22.81919 49.43904 27815 ft 418 kts 269°
2026-04-20 19:48 22.81855 49.40757 27816 ft 418 kts 269°
2026-04-20 19:49 22.81797 49.37603 27819 ft 418 kts 269°
2026-04-20 19:49 22.81741 49.34458 27820 ft 418 kts 269°
2026-04-20 19:49 22.81686 49.31310 27820 ft 418 kts 269°
2026-04-20 19:49 22.81628 49.28166 27821 ft 417 kts 269°
2026-04-20 19:50 22.81568 49.25024 27821 ft 417 kts 269°
2026-04-20 19:50 22.81508 49.21922 27821 ft 417 kts 269°
2026-04-20 19:50 22.81447 49.18785 27823 ft 417 kts 269°
2026-04-20 19:50 22.81383 49.15651 27822 ft 416 kts 269°
2026-04-20 19:51 22.81319 49.12513 27826 ft 416 kts 269°
2026-04-20 19:51 22.81257 49.09380 27826 ft 416 kts 269°
2026-04-20 19:51 22.81196 49.06249 27826 ft 416 kts 269°
2026-04-20 19:51 22.81132 49.03117 27826 ft 415 kts 269°
2026-04-20 19:52 22.81064 48.99989 27822 ft 415 kts 269°
2026-04-20 19:52 22.80996 48.96865 27824 ft 415 kts 269°
2026-04-20 19:52 22.80929 48.93778 27824 ft 415 kts 269°
2026-04-20 19:52 22.80861 48.90658 27822 ft 415 kts 269°
2026-04-20 19:53 22.80793 48.87535 27821 ft 414 kts 269°
2026-04-20 19:53 22.80727 48.84413 27819 ft 414 kts 269°
2026-04-20 19:53 22.80661 48.81293 27820 ft 414 kts 269°
2026-04-20 19:53 22.80594 48.78176 27819 ft 414 kts 269°
2026-04-20 19:54 22.80526 48.75057 27819 ft 414 kts 269°
2026-04-20 19:54 22.80457 48.71941 27819 ft 414 kts 269°
2026-04-20 19:54 22.80384 48.68823 27814 ft 413 kts 269°
2026-04-20 19:54 22.80309 48.65709 27815 ft 413 kts 269°
2026-04-20 19:55 22.80239 48.62637 27815 ft 413 kts 269°
2026-04-20 19:55 22.80169 48.59529 27813 ft 413 kts 269°
2026-04-20 19:55 22.80096 48.56412 27813 ft 413 kts 269°
2026-04-20 19:55 22.80021 48.53298 27811 ft 413 kts 269°
2026-04-20 19:56 22.79970 48.51237 27810 ft 413 kts 269°
2026-04-20 19:56 22.79870 48.47072 27808 ft 414 kts 269°
2026-04-20 19:56 22.79797 48.43955 27809 ft 414 kts 269°
2026-04-20 19:56 22.79721 48.40838 27808 ft 414 kts 269°
2026-04-20 19:57 22.79645 48.37763 27805 ft 414 kts 269°
2026-04-20 19:57 22.79567 48.34645 27806 ft 414 kts 269°
2026-04-20 19:57 22.79489 48.31529 27804 ft 414 kts 269°
2026-04-20 19:57 22.79409 48.28409 27805 ft 414 kts 269°
2026-04-20 19:58 22.79330 48.25292 27805 ft 414 kts 269°
2026-04-20 19:58 22.79253 48.22169 27804 ft 414 kts 269°
2026-04-20 19:58 22.79175 48.19056 27801 ft 414 kts 269°
2026-04-20 19:58 22.79093 48.15935 27805 ft 414 kts 269°
2026-04-20 19:59 22.79008 48.12817 27805 ft 414 kts 269°
2026-04-20 19:59 22.78922 48.09740 27807 ft 414 kts 269°
2026-04-20 19:59 22.78836 48.06620 27807 ft 414 kts 269°
2026-04-20 19:59 22.78753 48.03504 27805 ft 414 kts 269°
2026-04-20 20:00 22.78673 48.00382 27807 ft 414 kts 269°
2026-04-20 20:00 22.78591 47.97261 27808 ft 414 kts 269°
2026-04-20 20:00 22.78506 47.94142 27802 ft 414 kts 268°
2026-04-20 20:00 22.78419 47.91018 27808 ft 414 kts 268°
2026-04-20 20:01 22.78332 47.87939 27803 ft 415 kts 268°
2026-04-20 20:01 22.78245 47.84819 27805 ft 415 kts 268°
2026-04-20 20:01 22.78157 47.81693 27809 ft 415 kts 268°
2026-04-20 20:01 22.78069 47.78573 27807 ft 415 kts 268°
2026-04-20 20:02 22.77982 47.75451 27803 ft 415 kts 268°
2026-04-20 20:02 22.77894 47.72333 27805 ft 414 kts 268°
2026-04-20 20:02 22.77803 47.69209 27812 ft 414 kts 268°
2026-04-20 20:02 22.77711 47.66089 27811 ft 414 kts 268°
2026-04-20 20:03 22.77649 47.64024 27817 ft 414 kts 268°
2026-04-20 20:03 22.77524 47.59896 27818 ft 414 kts 268°
2026-04-20 20:03 22.77433 47.56776 27818 ft 414 kts 268°
2026-04-20 20:03 22.77344 47.53663 27819 ft 414 kts 268°
2026-04-20 20:04 22.77251 47.50545 27824 ft 414 kts 268°
2026-04-20 20:04 22.77158 47.47433 27822 ft 413 kts 268°
2026-04-20 20:04 22.77097 47.45374 27828 ft 413 kts 268°
2026-04-20 20:04 22.77004 47.42265 27826 ft 413 kts 268°
2026-04-20 20:05 22.76912 47.39160 27833 ft 412 kts 268°
2026-04-20 20:05 22.76816 47.36055 27830 ft 412 kts 268°
2026-04-20 20:05 22.76717 47.32951 27838 ft 412 kts 268°
2026-04-20 20:05 22.76619 47.29853 27839 ft 411 kts 268°
2026-04-20 20:06 22.76523 47.26759 27840 ft 411 kts 268°
2026-04-20 20:06 22.76427 47.23703 27839 ft 411 kts 268°
2026-04-20 20:06 22.76325 47.20615 27844 ft 410 kts 268°
2026-04-20 20:06 22.76259 47.17527 27843 ft 410 kts 272°
2026-04-20 20:07 22.76477 47.14447 27845 ft 410 kts 274°
2026-04-20 20:07 22.76724 47.11371 27852 ft 410 kts 274°
2026-04-20 20:07 22.76972 47.08299 27855 ft 409 kts 274°
2026-04-20 20:07 22.77220 47.05228 27851 ft 409 kts 274°
2026-04-20 20:08 22.77458 47.02197 27860 ft 409 kts 274°
2026-04-20 20:08 22.77697 46.99133 27854 ft 408 kts 274°
2026-04-20 20:08 22.77936 46.96071 27862 ft 408 kts 274°
2026-04-20 20:08 22.78173 46.93008 27858 ft 408 kts 274°
2026-04-20 20:09 22.78413 46.89948 27856 ft 407 kts 274°
2026-04-20 20:09 22.78652 46.86890 27862 ft 407 kts 274°
2026-04-20 20:09 22.78891 46.83832 27862 ft 407 kts 274°
2026-04-20 20:09 22.79127 46.80785 27861 ft 407 kts 274°
2026-04-20 20:10 22.79365 46.77734 27864 ft 406 kts 274°
2026-04-20 20:10 22.79600 46.74724 27863 ft 406 kts 274°
2026-04-20 20:10 22.79838 46.71677 27865 ft 406 kts 274°
2026-04-20 20:10 22.80074 46.68630 27867 ft 405 kts 274°
2026-04-20 20:11 22.80305 46.65594 27864 ft 405 kts 273°
2026-04-20 20:11 22.80536 46.62552 27863 ft 405 kts 273°
2026-04-20 20:11 22.80764 46.59511 27863 ft 405 kts 273°
2026-04-20 20:11 22.80992 46.56471 27861 ft 405 kts 273°
2026-04-20 20:12 22.81222 46.53428 27858 ft 405 kts 273°
2026-04-20 20:12 22.81451 46.50428 27857 ft 405 kts 273°
2026-04-20 20:12 22.81681 46.47390 27855 ft 405 kts 273°
2026-04-20 20:13 22.82138 46.41311 27850 ft 405 kts 273°
2026-04-20 20:13 22.82367 46.38263 27844 ft 405 kts 273°
2026-04-20 20:13 22.82597 46.35225 27842 ft 405 kts 273°
2026-04-20 20:13 22.82828 46.32186 27841 ft 405 kts 274°
2026-04-20 20:14 22.83053 46.29141 27840 ft 405 kts 273°
2026-04-20 20:14 22.83276 46.26096 27837 ft 405 kts 273°
2026-04-20 20:14 22.83494 46.23089 27836 ft 405 kts 273°
2026-04-20 20:14 22.83715 46.20041 27832 ft 405 kts 273°
2026-04-20 20:15 22.83936 46.17001 27834 ft 405 kts 273°
2026-04-20 20:15 22.84159 46.13955 27832 ft 406 kts 273°
2026-04-20 20:15 22.84381 46.10908 27826 ft 406 kts 273°
2026-04-20 20:15 22.84605 46.07857 27830 ft 406 kts 273°
2026-04-20 20:16 22.84827 46.04804 27827 ft 406 kts 273°
2026-04-20 20:16 22.85048 46.01752 27831 ft 406 kts 273°
2026-04-20 20:16 22.85267 45.98738 27828 ft 406 kts 273°
2026-04-20 20:16 22.85484 45.95684 27830 ft 406 kts 273°
2026-04-20 20:17 22.85700 45.92634 27829 ft 406 kts 273°
2026-04-20 20:17 22.85917 45.89581 27829 ft 407 kts 273°
2026-04-20 20:17 22.86137 45.86521 27829 ft 407 kts 273°
2026-04-20 20:17 22.86359 45.83467 27830 ft 407 kts 273°
2026-04-20 20:18 22.86578 45.80406 27829 ft 407 kts 273°
2026-04-20 20:18 22.86792 45.77346 27828 ft 407 kts 273°
2026-04-20 20:18 22.87006 45.74286 27825 ft 407 kts 273°
2026-04-20 20:18 22.87218 45.71266 27829 ft 407 kts 273°
2026-04-20 20:19 22.87434 45.68205 27829 ft 407 kts 273°
2026-04-20 20:19 22.87649 45.65143 27828 ft 408 kts 273°
2026-04-20 20:19 22.87864 45.62079 27830 ft 408 kts 273°
2026-04-20 20:19 22.88076 45.59009 27830 ft 408 kts 273°
2026-04-20 20:20 22.88288 45.55938 27835 ft 408 kts 273°
2026-04-20 20:20 22.88501 45.52867 27837 ft 408 kts 273°
2026-04-20 20:20 22.88715 45.49798 27841 ft 409 kts 273°
2026-04-20 20:20 22.88926 45.46729 27843 ft 409 kts 273°
2026-04-20 20:21 22.89133 45.43695 27844 ft 409 kts 273°
2026-04-20 20:21 22.89342 45.40623 27846 ft 409 kts 273°
2026-04-20 20:21 22.89553 45.37550 27846 ft 409 kts 273°
2026-04-20 20:21 22.89765 45.34473 27850 ft 409 kts 273°
2026-04-20 20:22 22.89978 45.31397 27849 ft 409 kts 273°
2026-04-20 20:22 22.90188 45.28319 27847 ft 409 kts 273°
2026-04-20 20:22 22.90396 45.25243 27852 ft 409 kts 273°
2026-04-20 20:22 22.90602 45.22158 27850 ft 410 kts 273°
2026-04-20 20:23 22.90804 45.19124 27855 ft 410 kts 273°
2026-04-20 20:23 22.91008 45.16043 27853 ft 410 kts 273°
2026-04-20 20:23 22.91213 45.12953 27852 ft 410 kts 273°
2026-04-20 20:23 22.91419 45.09871 27855 ft 410 kts 273°
2026-04-20 20:24 22.91626 45.06780 27856 ft 411 kts 273°
2026-04-20 20:24 22.91830 45.03691 27860 ft 411 kts 273°
2026-04-20 20:24 22.92035 45.00594 27866 ft 411 kts 273°
2026-04-20 20:24 22.92237 44.97501 27867 ft 412 kts 273°
2026-04-20 20:25 22.92437 44.94445 27869 ft 412 kts 273°
2026-04-20 20:25 22.92637 44.91351 27870 ft 412 kts 273°
2026-04-20 20:25 22.92838 44.88254 27871 ft 412 kts 273°
2026-04-20 20:25 22.93042 44.85155 27879 ft 412 kts 273°
2026-04-20 20:26 22.93244 44.82060 27884 ft 412 kts 273°
2026-04-20 20:26 22.93443 44.78959 27889 ft 412 kts 273°
2026-04-20 20:26 22.93639 44.75862 27895 ft 411 kts 273°
2026-04-20 20:26 22.93831 44.72810 27894 ft 411 kts 273°
2026-04-20 20:27 22.94025 44.69718 27902 ft 411 kts 273°
2026-04-20 20:27 22.94171 44.66623 27904 ft 410 kts 269°
2026-04-20 20:27 22.94054 44.63537 27906 ft 410 kts 267°
2026-04-20 20:27 22.93921 44.60451 27907 ft 409 kts 267°
2026-04-20 20:28 22.93786 44.57371 27906 ft 409 kts 267°
2026-04-20 20:28 22.93650 44.54289 27915 ft 408 kts 267°
2026-04-20 20:28 22.93514 44.51220 27913 ft 408 kts 267°
2026-04-20 20:28 22.93378 44.48150 27914 ft 407 kts 267°
2026-04-20 20:29 22.93241 44.45082 27914 ft 407 kts 267°
2026-04-20 20:29 22.93107 44.42058 27912 ft 407 kts 267°
2026-04-20 20:29 22.92973 44.38995 27911 ft 406 kts 267°
2026-04-20 20:29 22.92840 44.35934 27908 ft 406 kts 267°
2026-04-20 20:30 22.92706 44.32874 27905 ft 406 kts 267°
2026-04-20 20:30 22.92570 44.29813 27901 ft 406 kts 267°
2026-04-20 20:30 22.92431 44.26759 27902 ft 406 kts 267°
2026-04-20 20:30 22.92289 44.23699 27898 ft 406 kts 267°
2026-04-20 20:31 22.92148 44.20680 27898 ft 406 kts 267°
2026-04-20 20:31 22.92006 44.17626 27895 ft 406 kts 267°
2026-04-20 20:31 22.91864 44.14568 27895 ft 406 kts 267°
2026-04-20 20:31 22.91725 44.11506 27894 ft 406 kts 267°
2026-04-20 20:32 22.91587 44.08448 27895 ft 406 kts 267°
2026-04-20 20:32 22.91448 44.05382 27893 ft 407 kts 267°
2026-04-20 20:32 22.91308 44.02319 27904 ft 407 kts 267°
2026-04-20 20:32 22.91165 43.99258 27899 ft 407 kts 267°
2026-04-20 20:33 22.91020 43.96186 27904 ft 407 kts 267°
2026-04-20 20:33 22.90876 43.93164 27904 ft 407 kts 267°
2026-04-20 20:33 22.90728 43.90094 27906 ft 407 kts 267°
2026-04-20 20:33 22.90580 43.87027 27909 ft 408 kts 267°
2026-04-20 20:34 22.90432 43.83956 27914 ft 408 kts 267°
2026-04-20 20:34 22.90283 43.80886 27920 ft 408 kts 267°
2026-04-20 20:34 22.90133 43.77818 27920 ft 408 kts 267°
2026-04-20 20:34 22.89985 43.74746 27924 ft 407 kts 267°
2026-04-20 20:35 22.89836 43.71677 27931 ft 407 kts 267°
2026-04-20 20:35 22.89689 43.68654 27934 ft 407 kts 267°
2026-04-20 20:35 22.89540 43.65593 27935 ft 406 kts 267°
2026-04-20 20:35 22.89389 43.62538 27941 ft 406 kts 267°
2026-04-20 20:36 22.89236 43.59485 27943 ft 405 kts 267°
2026-04-20 20:36 22.89083 43.56431 27946 ft 405 kts 267°
2026-04-20 20:36 22.88930 43.53380 27951 ft 405 kts 267°
2026-04-20 20:36 22.88778 43.50328 27954 ft 405 kts 267°
2026-04-20 20:37 22.88629 43.47275 27956 ft 405 kts 267°
2026-04-20 20:37 22.88479 43.44229 27965 ft 405 kts 267°
2026-04-20 20:37 22.88330 43.41223 27969 ft 405 kts 267°
2026-04-20 20:37 22.88174 43.38177 27967 ft 405 kts 267°
2026-04-20 20:38 22.88015 43.35133 27968 ft 405 kts 266°
2026-04-20 20:38 22.87855 43.32090 27969 ft 404 kts 266°
2026-04-20 20:38 22.87696 43.29045 27966 ft 404 kts 266°
2026-04-20 20:38 22.87538 43.26003 27977 ft 404 kts 266°
2026-04-20 20:39 22.87381 43.22958 27974 ft 404 kts 266°
2026-04-20 20:39 22.87224 43.19916 27976 ft 404 kts 266°
2026-04-20 20:39 22.87071 43.16912 27977 ft 404 kts 267°
2026-04-20 20:39 22.86914 43.13870 27979 ft 404 kts 266°
2026-04-20 20:40 22.86757 43.10828 27985 ft 404 kts 266°
2026-04-20 20:40 22.86597 43.07786 27982 ft 404 kts 266°
2026-04-20 20:40 22.86436 43.04741 27985 ft 404 kts 266°
2026-04-20 20:40 22.86275 43.01698 27989 ft 404 kts 266°
2026-04-20 20:41 22.86113 42.98653 27991 ft 404 kts 266°
2026-04-20 20:41 22.85948 42.95613 27993 ft 404 kts 266°
2026-04-20 20:41 22.85786 42.92578 27997 ft 403 kts 266°
2026-04-20 20:41 22.85624 42.89539 27995 ft 403 kts 266°
2026-04-20 20:42 22.85464 42.86552 27999 ft 403 kts 266°
2026-04-20 20:42 22.85297 42.83521 27999 ft 402 kts 266°
2026-04-20 20:42 22.85131 42.80498 27993 ft 402 kts 266°
2026-04-20 20:42 22.84964 42.77477 28000 ft 401 kts 266°
2026-04-20 20:43 22.84797 42.74458 28000 ft 401 kts 266°
2026-04-20 20:43 22.84631 42.71445 28001 ft 401 kts 266°
2026-04-20 20:43 22.84467 42.68427 28000 ft 400 kts 266°
2026-04-20 20:43 22.84304 42.65411 28007 ft 400 kts 267°
2026-04-20 20:44 22.83970 42.59432 28005 ft 400 kts 266°
2026-04-20 20:44 22.83630 42.53428 28006 ft 399 kts 267°
2026-04-20 20:45 22.83299 42.47432 28008 ft 398 kts 267°
2026-04-20 20:45 22.83130 42.44439 28000 ft 398 kts 266°
2026-04-20 20:45 22.82959 42.41445 28005 ft 398 kts 266°
2026-04-20 20:46 22.82618 42.35501 28008 ft 397 kts 266°
2026-04-20 20:46 22.82279 42.29528 28004 ft 397 kts 266°
2026-04-20 20:47 22.81938 42.23560 28007 ft 397 kts 266°
2026-04-20 20:47 22.81586 42.17599 28008 ft 396 kts 266°
2026-04-20 20:48 22.81233 42.11682 28001 ft 396 kts 266°
2026-04-20 20:48 22.80888 42.05732 28002 ft 395 kts 266°
2026-04-20 20:49 22.80541 41.99792 28004 ft 395 kts 266°
2026-04-20 20:49 22.80179 41.93858 28000 ft 394 kts 266°
2026-04-20 20:50 22.79811 41.87977 28004 ft 394 kts 265°
2026-04-20 20:50 22.79280 41.82072 28004 ft 393 kts 264°
2026-04-20 20:51 22.78671 41.76187 28004 ft 393 kts 264°
2026-04-20 20:51 22.78079 41.70308 28005 ft 392 kts 264°
2026-04-20 20:52 22.77513 41.64439 28003 ft 391 kts 264°
2026-04-20 20:52 22.76957 41.58622 28009 ft 390 kts 265°
2026-04-20 20:53 22.76396 41.52776 28013 ft 390 kts 264°
2026-04-20 20:53 22.75827 41.46942 28015 ft 389 kts 264°
2026-04-20 20:54 22.75259 41.41122 28013 ft 388 kts 264°
2026-04-20 20:54 22.74698 41.35352 28016 ft 387 kts 264°
2026-04-20 20:55 22.73722 41.29628 28008 ft 389 kts 252°
2026-04-20 20:55 22.71709 41.24173 28004 ft 390 kts 251°
2026-04-20 20:56 22.69713 41.18723 28000 ft 390 kts 251°
2026-04-20 20:56 22.68713 41.15998 28000 ft 389 kts 251°
2026-04-20 20:56 22.67726 41.13307 27994 ft 389 kts 251°
2026-04-20 20:57 22.66731 41.10586 27995 ft 389 kts 251°
2026-04-20 20:57 22.65736 41.07861 27996 ft 389 kts 251°
2026-04-20 20:57 22.64743 41.05139 27999 ft 389 kts 251°
2026-04-20 20:57 22.63748 41.02419 27995 ft 389 kts 251°
2026-04-20 20:58 22.62749 40.99698 27990 ft 389 kts 251°
2026-04-20 20:58 22.61749 40.96978 27989 ft 389 kts 251°
2026-04-20 20:58 22.60747 40.94261 27989 ft 389 kts 251°
2026-04-20 20:58 22.59757 40.91579 27989 ft 389 kts 251°
2026-04-20 20:59 22.58755 40.88863 27989 ft 389 kts 251°
2026-04-20 20:59 22.57755 40.86146 27993 ft 389 kts 251°
2026-04-20 20:59 22.56754 40.83435 27986 ft 389 kts 251°
2026-04-20 20:59 22.55749 40.80719 27987 ft 389 kts 251°
2026-04-20 21:00 22.54748 40.78005 27987 ft 388 kts 251°
2026-04-20 21:00 22.53747 40.75290 27986 ft 388 kts 251°
2026-04-20 21:00 22.52744 40.72577 27986 ft 388 kts 251°
2026-04-20 21:00 22.51753 40.69903 27991 ft 389 kts 251°
2026-04-20 21:01 22.50748 40.67189 27986 ft 389 kts 251°
2026-04-20 21:01 22.49744 40.64478 27992 ft 389 kts 251°
2026-04-20 21:01 22.48740 40.61764 27991 ft 388 kts 251°
2026-04-20 21:01 22.47737 40.59054 27989 ft 389 kts 251°
2026-04-20 21:02 22.46732 40.56344 27988 ft 389 kts 251°
2026-04-20 21:02 22.45724 40.53632 27994 ft 389 kts 251°
2026-04-20 21:02 22.44715 40.50921 27992 ft 389 kts 251°
2026-04-20 21:02 22.43704 40.48215 27994 ft 389 kts 251°
2026-04-20 21:03 22.42705 40.45541 27996 ft 389 kts 251°
2026-04-20 21:03 22.41694 40.42830 27998 ft 389 kts 251°
2026-04-20 21:03 22.40685 40.40120 28000 ft 389 kts 251°
2026-04-20 21:03 22.39676 40.37408 28002 ft 389 kts 251°
2026-04-20 21:04 22.37654 40.31991 28002 ft 389 kts 251°
2026-04-20 21:04 22.36640 40.29278 28000 ft 389 kts 251°
2026-04-20 21:04 22.35629 40.26571 27999 ft 389 kts 251°
2026-04-20 21:05 22.34627 40.23896 27991 ft 389 kts 251°
2026-04-20 21:05 22.33610 40.21184 27991 ft 389 kts 251°
2026-04-20 21:05 22.32594 40.18474 27990 ft 389 kts 251°
2026-04-20 21:05 22.31582 40.15765 27836 ft 390 kts 251°
2026-04-20 21:06 22.30568 40.13054 27259 ft 386 kts 250°
2026-04-20 21:06 22.29570 40.10388 26734 ft 380 kts 250°
2026-04-20 21:06 22.28585 40.07760 26236 ft 375 kts 250°
2026-04-20 21:06 22.27614 40.05170 25728 ft 370 kts 250°
2026-04-20 21:07 22.26642 40.02660 25245 ft 365 kts 246°
2026-04-20 21:07 22.25358 40.00302 24697 ft 364 kts 239°
2026-04-20 21:07 22.23966 39.98034 24135 ft 362 kts 239°
2026-04-20 21:07 22.22597 39.95806 23918 ft 349 kts 239°
2026-04-20 21:08 22.21284 39.93672 23785 ft 334 kts 239°
2026-04-20 21:08 22.20019 39.91610 23527 ft 326 kts 239°
2026-04-20 21:08 22.18787 39.89592 23440 ft 321 kts 240°
2026-04-20 21:08 22.17561 39.87579 23352 ft 321 kts 240°
2026-04-20 21:09 22.16347 39.85586 22991 ft 323 kts 239°
2026-04-20 21:09 22.15115 39.83569 22516 ft 320 kts 239°
2026-04-20 21:09 22.13894 39.81572 22062 ft 317 kts 239°
2026-04-20 21:09 22.12686 39.79594 21624 ft 314 kts 239°
2026-04-20 21:10 22.11488 39.77636 21192 ft 312 kts 239°
2026-04-20 21:10 22.10296 39.75688 20755 ft 310 kts 239°
2026-04-20 21:10 22.09114 39.73756 20324 ft 308 kts 239°
2026-04-20 21:10 22.07936 39.71834 19894 ft 306 kts 238°
2026-04-20 21:11 22.06779 39.69950 19479 ft 305 kts 238°
2026-04-20 21:11 22.05614 39.68052 19046 ft 303 kts 238°
2026-04-20 21:11 22.04454 39.66164 18622 ft 301 kts 238°
2026-04-20 21:11 22.03303 39.64284 18206 ft 300 kts 238°
2026-04-20 21:12 22.02158 39.62416 17741 ft 298 kts 238°
2026-04-20 21:12 22.01022 39.60565 17315 ft 295 kts 238°
2026-04-20 21:12 21.99891 39.58723 16908 ft 294 kts 238°
2026-04-20 21:12 21.98762 39.56894 16499 ft 293 kts 237°
2026-04-20 21:13 21.98017 39.55687 16228 ft 292 kts 237°
2026-04-20 21:13 21.97182 39.54332 15926 ft 291 kts 237°
2026-04-20 21:13 21.96066 39.52519 15514 ft 289 kts 237°
2026-04-20 21:13 21.94958 39.50715 15117 ft 288 kts 238°
2026-04-20 21:14 21.93948 39.48860 14689 ft 287 kts 245°
2026-04-20 21:14 21.93083 39.46911 14156 ft 290 kts 245°
2026-04-20 21:14 21.92214 39.44952 13785 ft 288 kts 245°
2026-04-20 21:14 21.91355 39.43024 13242 ft 286 kts 244°
2026-04-20 21:15 21.90494 39.41092 12781 ft 285 kts 244°
2026-04-20 21:15 21.89642 39.39184 12268 ft 287 kts 244°
2026-04-20 21:15 21.88785 39.37261 11922 ft 283 kts 244°
2026-04-20 21:15 21.87944 39.35372 11208 ft 280 kts 244°
2026-04-20 21:16 21.87099 39.33475 10685 ft 282 kts 244°
2026-04-20 21:16 21.86247 39.31563 10241 ft 282 kts 244°
2026-04-20 21:16 21.85392 39.29650 9797 ft 283 kts 244°
2026-04-20 21:16 21.84545 39.27756 9517 ft 276 kts 244°
2026-04-20 21:17 21.83731 39.25934 9392 ft 264 kts 243°
2026-04-20 21:17 21.82963 39.24221 9280 ft 251 kts 241°
2026-04-20 21:17 21.81941 39.22926 9175 ft 243 kts 212°
2026-04-20 21:17 21.80325 39.22444 8915 ft 249 kts 178°
2026-04-20 21:18 21.78637 39.22894 8519 ft 252 kts 164°
2026-04-20 21:18 21.76987 39.23535 8141 ft 252 kts 162°
2026-04-20 21:18 21.75351 39.24210 7772 ft 251 kts 162°
2026-04-20 21:18 21.73722 39.24885 7405 ft 251 kts 162°
2026-04-20 21:19 21.72095 39.25552 7039 ft 250 kts 162°
2026-04-20 21:19 21.70543 39.26180 6700 ft 250 kts 162°
2026-04-20 21:19 21.68883 39.26846 6340 ft 243 kts 162°
2026-04-20 21:20 21.65852 39.28055 5679 ft 229 kts 162°
2026-04-20 21:20 21.64358 39.28647 5353 ft 228 kts 162°
2026-04-20 21:20 21.62884 39.29231 5042 ft 224 kts 162°
2026-04-20 21:20 21.61429 39.29805 4720 ft 222 kts 162°
2026-04-20 21:21 21.59977 39.30372 4402 ft 222 kts 162°
2026-04-20 21:21 21.58529 39.30938 4083 ft 221 kts 161°
2026-04-20 21:21 21.57087 39.31501 3771 ft 220 kts 161°
2026-04-20 21:21 21.55652 39.32061 3451 ft 219 kts 161°
2026-04-20 21:22 21.54239 39.32613 3164 ft 219 kts 160°
2026-04-20 21:22 21.52823 39.33167 3014 ft 216 kts 160°
2026-04-20 21:22 21.51413 39.33720 3006 ft 216 kts 161°
2026-04-20 21:22 21.50002 39.34272 3011 ft 216 kts 160°
2026-04-20 21:23 21.48585 39.34825 3014 ft 216 kts 160°
2026-04-20 21:23 21.47172 39.35378 3014 ft 216 kts 160°
2026-04-20 21:23 21.45760 39.35931 3013 ft 216 kts 160°
2026-04-20 21:23 21.44353 39.36482 3011 ft 215 kts 161°
2026-04-20 21:24 21.42945 39.37033 3016 ft 216 kts 161°
2026-04-20 21:24 21.41553 39.37579 3019 ft 216 kts 160°
2026-04-20 21:24 21.40144 39.38133 3015 ft 216 kts 160°
2026-04-20 21:24 21.38735 39.38690 3023 ft 215 kts 160°
2026-04-20 21:25 21.37328 39.39243 3029 ft 216 kts 160°
2026-04-20 21:25 21.35874 39.39551 3015 ft 215 kts 186°
2026-04-20 21:25 21.34524 39.38904 3015 ft 219 kts 222°
2026-04-20 21:25 21.33762 39.37488 3026 ft 224 kts 246°
2026-04-20 21:26 21.33239 39.35937 3018 ft 225 kts 251°
2026-04-20 21:26 21.33070 39.34260 3015 ft 229 kts 271°
2026-04-20 21:26 21.33460 39.32601 3014 ft 232 kts 293°
2026-04-20 21:26 21.34005 39.31639 3012 ft 234 kts 306°
2026-04-20 21:27 21.35226 39.30487 3013 ft 237 kts 329°
2026-04-20 21:27 21.36439 39.29925 3019 ft 237 kts 339°
2026-04-20 21:27 21.38018 39.29310 3009 ft 237 kts 339°
2026-04-20 21:27 21.39571 39.28704 3008 ft 237 kts 339°
2026-04-20 21:28 21.41100 39.28104 3007 ft 237 kts 339°
2026-04-20 21:28 21.42640 39.27499 3009 ft 230 kts 339°
2026-04-20 21:28 21.44112 39.26921 3007 ft 222 kts 339°
2026-04-20 21:28 21.45549 39.26357 3021 ft 218 kts 339°
2026-04-20 21:29 21.46972 39.25798 3010 ft 217 kts 339°
2026-04-20 21:29 21.48387 39.25241 3014 ft 216 kts 339°
2026-04-20 21:29 21.49773 39.24697 3004 ft 208 kts 339°
2026-04-20 21:29 21.51124 39.24165 3007 ft 205 kts 339°
2026-04-20 21:30 21.52446 39.23645 2873 ft 205 kts 338°
2026-04-20 21:30 21.53738 39.23137 2666 ft 190 kts 339°
2026-04-20 21:30 21.54946 39.22662 2427 ft 180 kts 339°
2026-04-20 21:30 21.56101 39.22208 2199 ft 174 kts 339°
2026-04-20 21:31 21.57218 39.21768 1984 ft 169 kts 339°
2026-04-20 21:31 21.58305 39.21340 1772 ft 164 kts 339°
2026-04-20 21:31 21.59339 39.20933 1567 ft 153 kts 340°
2026-04-20 21:31 21.60319 39.20546 1371 ft 148 kts 340°
2026-04-20 21:32 21.61268 39.20173 1181 ft 147 kts 340°
2026-04-20 21:32 21.62230 39.19794 994 ft 147 kts 341°
2026-04-20 21:32 21.63182 39.19424 811 ft 145 kts 340°
2026-04-20 21:32 21.64129 39.19056 627 ft 144 kts 340°
2026-04-20 21:33 21.65058 39.18680 458 ft 142 kts 340°
2026-04-20 21:33 21.65976 39.18308 264 ft 141 kts 341°
2026-04-20 21:33 21.66897 39.17956 89 ft 139 kts 341°
2026-04-20 21:33 21.67760 39.17613 53 ft 117 kts 339°
2026-04-20 21:34 21.68333 39.17388 47 ft 62 kts 340°
2026-04-20 21:34 21.68609 39.17278 45 ft 34 kts 340°
2026-04-20 21:34 21.68779 39.17209 44 ft 19 kts 330°
2026-04-20 21:34 21.68865 39.17108 45 ft 18 kts 307°
2026-04-20 21:35 21.68928 39.17015 45 ft 13 kts 301°
2026-04-20 21:35 21.68907 39.16941 45 ft 10 kts 202°
2026-04-20 21:35 21.68841 39.16954 45 ft 9 kts 161°
2026-04-20 21:35 21.68780 39.16977 46 ft 9 kts 161°
2026-04-20 21:36 21.68722 39.17000 46 ft 9 kts 159°
2026-04-20 21:36 21.68664 39.17023 46 ft 9 kts 160°
2026-04-20 21:36 21.68606 39.17046 45 ft 9 kts 160°
2026-04-20 21:36 21.68546 39.17069 46 ft 9 kts 160°
2026-04-20 21:37 21.68481 39.17094 47 ft 10 kts 160°
2026-04-20 21:37 21.68412 39.17121 47 ft 11 kts 160°
2026-04-20 21:37 21.68337 39.17150 47 ft 11 kts 160°
2026-04-20 21:37 21.68262 39.17179 48 ft 11 kts 160°
2026-04-20 21:38 21.68187 39.17208 47 ft 11 kts 160°
2026-04-20 21:38 21.68112 39.17237 48 ft 11 kts 160°
2026-04-20 21:38 21.68039 39.17267 50 ft 11 kts 160°
2026-04-20 21:38 21.67974 39.17292 50 ft 12 kts 160°
2026-04-20 21:39 21.67897 39.17322 51 ft 12 kts 160°
2026-04-20 21:39 21.67820 39.17352 48 ft 12 kts 160°
2026-04-20 21:39 21.67742 39.17384 52 ft 12 kts 159°
2026-04-20 21:39 21.67663 39.17416 52 ft 12 kts 159°
2026-04-20 21:40 21.67581 39.17449 52 ft 13 kts 159°
2026-04-20 21:40 21.67499 39.17483 53 ft 13 kts 159°
2026-04-20 21:40 21.67415 39.17516 53 ft 13 kts 160°
2026-04-20 21:40 21.67329 39.17550 54 ft 13 kts 160°
2026-04-20 21:41 21.67240 39.17585 52 ft 14 kts 160°
2026-04-20 21:41 21.67149 39.17620 54 ft 14 kts 160°
2026-04-20 21:41 21.67066 39.17652 55 ft 12 kts 160°
2026-04-20 21:41 21.66993 39.17641 53 ft 12 kts 226°
2026-04-20 21:42 21.66957 39.17557 50 ft 13 kts 249°
2026-04-20 21:42 21.66921 39.17456 53 ft 16 kts 248°
2026-04-20 21:42 21.66884 39.17364 52 ft 12 kts 249°
2026-04-20 21:42 21.66884 39.17294 50 ft 8 kts 287°
2026-04-20 21:43 21.66884 39.17237 47 ft 7 kts 253°
2026-04-20 21:43 21.66879 39.17218 47 ft 8 kts 253°
2026-04-20 21:43 21.66868 39.17181 47 ft 2 kts 252°
2026-04-20 21:43 21.66866 39.17174 48 ft 0 kts 252°